EW7772 Weather Reports


time (UTC)temp
C
wind
direction
speed
KPH
gust
KPH
rain 1hr
cm
rain 24hr
cm
rain mn
cm
humidity
%
barometer
mb
20260902224510 15 294 0.0 0.0 0.00 0.00 0.00 83 1021.7
20260902223008 16 294 0.0 0.0 0.00 0.00 0.00 82 1021.7
20260902221506 16 294 0.0 0.0 0.00 0.00 0.00 81 1021.7
20260902214620 16 294 0.0 0.0 0.00 0.00 0.00 80 1021.7
20260902213050 16 294 0.0 0.0 0.00 0.00 0.00 79 1021.6
20260902211548 16 294 0.0 0.0 0.00 0.00 0.00 78 1021.6
20260902210055 17 294 0.0 0.0 0.00 0.00 0.00 77 1021.5
20260902204547 17 294 0.0 0.0 0.00 0.00 0.00 76 1021.4
20260902203048 17 294 0.0 0.0 0.00 0.00 0.00 75 1021.3
20260902201548 17 294 0.0 0.0 0.00 0.00 0.00 74 1021.2
20260902200045 18 294 0.0 0.0 0.00 0.00 0.00 72 1021.1
20260902194547 18 294 0.0 0.0 0.00 0.00 0.00 72 1021.1
20260902193046 18 294 0.0 0.0 0.00 0.00 0.00 70 1021.0
20260902191555 18 294 0.0 0.0 0.00 0.00 0.00 68 1020.9
20260902190053 19 294 0.0 0.0 0.00 0.00 0.00 66 1020.7
20260902184543 20 294 0.0 0.0 0.00 0.00 0.00 64 1020.7
20260902183043 20 294 0.0 0.0 0.00 0.00 0.00 61 1020.4
20260902181549 21 294 0.0 0.0 0.00 0.00 0.00 59 1020.4
20260902180044 21 294 0.0 1.6 0.00 0.00 0.00 57 1020.1
20260902174543 22 294 0.0 1.6 0.00 0.00 0.00 55 1020.0
20260902173042 22 294 0.0 3.2 0.00 0.00 0.00 54 1019.9
20260902171603 22 294 0.0 3.2 0.00 0.00 0.00 53 1019.7
20260902170040 23 290 0.0 1.6 0.00 0.00 0.00 52 1019.7
20260902164541 23 243 0.0 3.2 0.00 0.00 0.00 52 1019.6
20260902163039 23 242 0.0 4.8 0.00 0.00 0.00 55 1019.7
20260902161545 23 217 0.0 6.4 0.00 0.00 0.00 53 1019.7
20260902160042 23 229 0.0 1.6 0.00 0.00 0.00 53 1019.6
20260902154538 23 265 0.0 6.4 0.00 0.00 0.00 53 1019.7
20260902153037 23 264 0.0 4.8 0.00 0.00 0.00 53 1019.6
20260902151542 24 267 0.0 6.4 0.00 0.00 0.00 51 1019.7
20260902150036 25 307 0.0 6.4 0.00 0.00 0.00 48 1019.7
20260902144536 25 241 0.0 4.8 0.00 0.00 0.00 50 1019.5
20260902143035 25 239 0.0 4.8 0.00 0.00 0.00 50 1019.6
20260902141545 24 288 0.0 4.8 0.00 0.00 0.00 48 1019.7
20260902140035 25 227 0.0 6.4 0.00 0.00 0.00 47 1019.7
20260902134537 25 280 0.0 1.6 0.00 0.00 0.00 45 1019.6
20260902133037 26 242 1.6 8.0 0.00 0.00 0.00 41 1019.5
20260902131533 26 281 3.2 8.0 0.00 0.00 0.00 41 1019.5
20260902130036 26 234 0.0 8.0 0.00 0.00 0.00 44 1019.7
20260902124529 26 281 0.0 4.8 0.00 0.00 0.00 44 1019.8
20260902123028 26 288 0.0 6.4 0.00 0.00 0.00 43 1019.9
20260902121525 25 269 0.0 4.8 0.00 0.00 0.00 46 1020.0
20260902120025 25 274 0.0 3.2 0.00 0.00 0.00 44 1020.0
20260902114527 26 267 0.0 6.4 0.00 0.00 0.00 47 1020.2
20260902113020 25 320 0.0 3.2 0.00 0.00 0.00 48 1020.4
20260902111518 25 266 0.0 4.8 0.00 0.00 0.00 48 1020.5
20260902110015 25 265 0.0 4.8 0.00 0.00 0.00 50 1020.7
20260902104515 24 287 0.0 6.4 0.00 0.00 0.00 50 1020.8
20260902103009 23 300 0.0 1.6 0.00 0.00 0.00 56 1020.9
20260902101505 22 300 0.0 3.2 0.00 0.00 0.00 58 1021.0
20260902100001 21 300 0.0 3.2 0.00 0.00 0.00 61 1021.1
20260902094558 20 300 0.0 3.2 0.00 0.00 0.00 64 1021.4
20260902093053 19 336 0.0 1.6 0.00 0.00 0.00 66 1021.4
20260902091551 18 340 0.0 1.6 0.00 0.00 0.00 68 1021.3
20260902090048 18 341 0.0 1.6 0.00 0.00 0.00 69 1021.3
20260902084547 18 341 0.0 1.6 0.00 0.00 0.00 71 1021.4
20260902083041 17 341 0.0 0.0 0.00 0.00 0.00 75 1021.3
20260902081537 16 341 0.0 0.0 0.00 0.00 0.00 76 1021.4
20260902080038 16 341 0.0 0.0 0.00 0.00 0.00 77 1021.3
20260902074544 15 341 0.0 0.0 0.00 0.00 0.00 78 1021.1
20260902073031 15 341 0.0 0.0 0.00 0.00 0.00 79 1021.4
20260902071529 15 341 0.0 0.0 0.00 0.00 0.00 81 1021.3
20260902070026 14 342 0.0 0.0 0.00 0.00 0.00 82 1021.3
20260902064527 13 342 0.0 0.0 0.00 0.00 0.00 84 1021.2
20260902063048 13 342 0.0 0.0 0.00 0.00 0.00 85 1021.3
20260902061528 13 342 0.0 0.0 0.00 0.00 0.00 86 1021.3
20260902060024 12 342 0.0 0.0 0.00 0.00 0.00 86 1021.5
20260902054523 12 342 0.0 0.0 0.00 0.00 0.00 87 1021.4
20260902053022 11 342 0.0 0.0 0.00 0.00 0.00 89 1021.3
20260902051535 11 342 0.0 0.0 0.00 0.00 0.00 90 1021.3
20260902050029 11 342 0.0 0.0 0.00 0.00 0.00 90 1021.3
20260902044523 11 342 0.0 0.0 0.00 0.00 0.00 90 1021.1
20260902043021 11 342 0.0 0.0 0.00 0.00 0.00 90 1021.2
20260902041539 11 342 0.0 0.0 0.00 0.00 0.00 89 1021.2
20260902040025 11 342 0.0 0.0 0.00 0.00 0.00 89 1021.0
20260902034518 11 342 0.0 0.0 0.00 0.00 0.00 88 1021.1
20260902033017 11 342 0.0 0.0 0.00 0.00 0.00 88 1021.0
20260902031514 11 342 0.0 0.0 0.00 0.00 0.00 88 1021.1
20260902030013 12 342 0.0 0.0 0.00 0.00 0.00 87 1021.0
20260902024512 12 342 0.0 0.0 0.00 0.00 0.00 87 1021.1
20260902023011 12 342 0.0 0.0 0.00 0.00 0.00 87 1021.2
20260902021510 12 342 0.0 1.6 0.00 0.00 0.00 87 1021.1
20260902020011 12 342 0.0 0.0 0.00 0.00 0.00 87 1021.1
20260902014518 12 341 0.0 0.0 0.00 0.00 0.00 87 1021.2
20260902013011 12 341 0.0 0.0 0.00 0.00 0.00 88 1021.2
20260902011512 12 341 0.0 0.0 0.00 0.00 0.00 87 1021.2
20260902010006 12 341 0.0 0.0 0.00 0.00 0.00 87 1021.3
20260902004504 12 341 0.0 0.0 0.00 0.00 0.00 85 1021.3
20260902003003 13 341 0.0 0.0 0.00 0.00 0.00 84 1021.4
20260902001600 13 341 0.0 0.0 0.00 0.00 0.00 84 1021.5
20260902000100 13 341 0.0 0.0 0.00 0.00 0.00 83 1021.6
20260901234556 13 341 0.0 1.6 0.00 0.00 0.00 82 1021.5
20260901233056 13 336 0.0 1.6 0.00 0.00 0.00 81 1021.5
20260901231600 13 300 0.0 0.0 0.00 0.00 0.00 81 1021.6
20260901230054 14 299 0.0 0.0 0.00 0.00 0.00 81 1021.6